Time,TemperatureF,DewpointF,PressureIn,WindDirection,WindDirectionDegrees,WindSpeedMPH,WindSpeedGustMPH,Humidity,HourlyPrecipIn,Conditions,Clouds,dailyrainin,SoftwareType,DateUTC
2013-06-12 00:01:00,52.8,52.0,29.81,NE,45,0.0,2.0,97,0.00,,,0.00,Rainwise IP-100,2013-06-12 04:01:00,
2013-06-12 00:02:00,52.9,52.0,29.81,NE,45,1.0,2.0,97,0.00,,,0.00,Rainwise IP-100,2013-06-12 04:02:00,
2013-06-12 00:04:00,52.8,52.0,29.81,North,360,2.0,2.0,97,0.00,,,0.00,Rainwise IP-100,2013-06-12 04:04:00,
2013-06-12 00:09:00,52.7,52.0,29.82,NNW,337,3.0,4.0,97,0.06,,,0.01,Rainwise IP-100,2013-06-12 04:09:00,
2013-06-12 00:13:00,52.7,52.0,29.82,North,360,2.0,7.0,97,0.06,,,0.01,Rainwise IP-100,2013-06-12 04:13:00,
2013-06-12 00:16:00,52.6,52.0,29.82,North,360,2.0,7.0,97,0.00,,,0.01,Rainwise IP-100,2013-06-12 04:16:00,
2013-06-12 00:21:00,52.4,51.0,29.82,WNW,292,2.0,6.0,97,0.00,,,0.01,Rainwise IP-100,2013-06-12 04:21:00,
2013-06-12 00:26:00,52.3,51.0,29.82,NNW,337,2.0,4.0,97,0.00,,,0.01,Rainwise IP-100,2013-06-12 04:26:00,
2013-06-12 00:31:00,52.2,51.0,29.82,North,360,2.0,6.0,97,0.00,,,0.01,Rainwise IP-100,2013-06-12 04:31:00,
2013-06-12 00:36:00,52.1,51.0,29.82,NW,315,1.0,5.0,97,0.00,,,0.01,Rainwise IP-100,2013-06-12 04:36:00,
2013-06-12 00:41:00,51.9,51.0,29.82,NW,315,1.0,3.0,97,0.00,,,0.01,Rainwise IP-100,2013-06-12 04:41:00,
2013-06-12 00:47:00,52.1,51.0,29.82,North,360,1.0,2.0,97,0.00,,,0.01,Rainwise IP-100,2013-06-12 04:47:00,
2013-06-12 00:52:00,51.9,51.0,29.82,North,360,1.0,2.0,97,0.00,,,0.01,Rainwise IP-100,2013-06-12 04:52:00,
2013-06-12 00:58:00,51.8,51.0,29.82,North,360,4.0,4.0,97,0.00,,,0.01,Rainwise IP-100,2013-06-12 04:58:00,
2013-06-12 01:03:00,51.8,51.0,29.83,North,360,4.0,9.0,97,0.06,,,0.02,Rainwise IP-100,2013-06-12 05:03:00,
2013-06-12 01:08:00,51.7,51.0,29.83,NW,315,4.0,5.0,97,0.06,,,0.02,Rainwise IP-100,2013-06-12 05:08:00,
2013-06-12 01:13:00,51.7,51.0,29.83,NE,45,1.0,5.0,97,0.00,,,0.02,Rainwise IP-100,2013-06-12 05:13:00,
2013-06-12 01:18:00,51.6,51.0,29.83,NE,45,2.0,5.0,97,0.00,,,0.02,Rainwise IP-100,2013-06-12 05:18:00,
2013-06-12 01:23:00,51.6,51.0,29.83,NW,315,2.0,4.0,97,0.00,,,0.02,Rainwise IP-100,2013-06-12 05:23:00,
2013-06-12 01:28:00,51.5,51.0,29.83,NNW,337,1.0,2.0,97,0.00,,,0.02,Rainwise IP-100,2013-06-12 05:28:00,
2013-06-12 01:33:00,51.4,50.5,29.83,North,360,2.0,2.0,97,0.00,,,0.02,Rainwise IP-100,2013-06-12 05:33:00,
2013-06-12 01:38:00,51.4,50.5,29.83,NW,315,0.0,2.0,97,0.00,,,0.02,Rainwise IP-100,2013-06-12 05:38:00,
2013-06-12 01:43:00,51.4,50.5,29.83,NW,315,0.0,2.0,97,0.00,,,0.02,Rainwise IP-100,2013-06-12 05:43:00,
2013-06-12 01:48:00,51.4,50.5,29.84,NW,315,0.0,2.0,97,0.00,,,0.02,Rainwise IP-100,2013-06-12 05:48:00,
2013-06-12 01:53:00,51.3,50.5,29.84,NW,315,0.0,1.0,97,0.00,,,0.02,Rainwise IP-100,2013-06-12 05:53:00,
2013-06-12 01:59:00,51.3,50.5,29.84,NW,315,0.0,0.0,97,0.00,,,0.02,Rainwise IP-100,2013-06-12 05:59:00,
2013-06-12 02:04:00,51.3,50.5,29.84,NW,315,0.0,0.0,97,0.00,,,0.02,Rainwise IP-100,2013-06-12 06:04:00,
2013-06-12 02:09:00,51.3,50.5,29.84,NE,45,0.0,2.0,97,0.06,,,0.03,Rainwise IP-100,2013-06-12 06:09:00,
2013-06-12 02:14:00,51.3,50.5,29.84,North,360,0.0,2.0,97,0.06,,,0.03,Rainwise IP-100,2013-06-12 06:14:00,
2013-06-12 02:19:00,51.2,50.5,29.84,NW,315,2.0,6.0,97,0.00,,,0.03,Rainwise IP-100,2013-06-12 06:19:00,
2013-06-12 02:24:00,51.3,50.5,29.84,North,360,3.0,7.0,97,0.00,,,0.03,Rainwise IP-100,2013-06-12 06:24:00,
2013-06-12 02:29:00,51.3,50.5,29.84,North,360,4.0,6.0,97,0.00,,,0.03,Rainwise IP-100,2013-06-12 06:29:00,
2013-06-12 02:34:00,51.3,50.5,29.85,North,360,2.0,7.0,97,0.00,,,0.03,Rainwise IP-100,2013-06-12 06:34:00,
2013-06-12 02:39:00,51.2,50.5,29.85,North,360,1.0,3.0,97,0.00,,,0.03,Rainwise IP-100,2013-06-12 06:39:00,
2013-06-12 02:44:00,51.2,50.5,29.85,NW,315,3.0,4.0,97,0.00,,,0.03,Rainwise IP-100,2013-06-12 06:44:00,
2013-06-12 02:49:00,51.2,50.5,29.85,West,270,0.0,4.0,97,0.00,,,0.03,Rainwise IP-100,2013-06-12 06:49:00,
2013-06-12 02:54:00,51.1,50.5,29.85,WSW,247,0.0,4.0,97,0.00,,,0.03,Rainwise IP-100,2013-06-12 06:54:00,
2013-06-12 03:00:00,51.2,50.5,29.85,NW,315,2.0,4.0,97,0.00,,,0.03,Rainwise IP-100,2013-06-12 07:00:00,
2013-06-12 03:05:00,51.2,50.5,29.85,North,360,2.0,3.0,97,0.00,,,0.03,Rainwise IP-100,2013-06-12 07:05:00,
2013-06-12 03:10:00,51.2,50.5,29.85,West,270,1.0,4.0,97,0.00,,,0.03,Rainwise IP-100,2013-06-12 07:10:00,
2013-06-12 03:15:00,51.2,50.5,29.85,North,360,2.0,5.0,97,0.00,,,0.03,Rainwise IP-100,2013-06-12 07:15:00,
2013-06-12 03:20:00,51.2,50.5,29.85,North,360,1.0,3.0,97,0.06,,,0.04,Rainwise IP-100,2013-06-12 07:20:00,
2013-06-12 03:25:00,51.1,50.5,29.85,NW,315,1.0,3.0,97,0.06,,,0.04,Rainwise IP-100,2013-06-12 07:25:00,
2013-06-12 03:30:00,51.1,50.5,29.85,West,270,2.0,2.0,97,0.00,,,0.04,Rainwise IP-100,2013-06-12 07:30:00,
2013-06-12 03:35:00,51.1,50.5,29.85,NW,315,2.0,3.0,97,0.00,,,0.04,Rainwise IP-100,2013-06-12 07:35:00,
2013-06-12 03:40:00,51.1,50.5,29.85,NNW,337,1.0,2.0,97,0.00,,,0.04,Rainwise IP-100,2013-06-12 07:40:00,
2013-06-12 03:45:00,51.1,50.5,29.85,SW,225,2.0,4.0,97,0.00,,,0.04,Rainwise IP-100,2013-06-12 07:45:00,
2013-06-12 03:50:00,51.1,50.5,29.85,NW,315,1.0,4.0,97,0.00,,,0.04,Rainwise IP-100,2013-06-12 07:50:00,
2013-06-12 03:55:00,51.2,50.5,29.85,NE,45,2.0,5.0,97,0.00,,,0.04,Rainwise IP-100,2013-06-12 07:55:00,
2013-06-12 04:01:00,51.3,50.5,29.85,West,270,2.0,6.0,97,0.00,,,0.04,Rainwise IP-100,2013-06-12 08:01:00,
2013-06-12 04:06:00,51.4,50.5,29.85,NNE,22,1.0,6.0,97,0.06,,,0.05,Rainwise IP-100,2013-06-12 08:06:00,
2013-06-12 04:11:00,51.3,50.5,29.85,NW,315,2.0,4.0,97,0.06,,,0.05,Rainwise IP-100,2013-06-12 08:11:00,
2013-06-12 04:16:00,51.4,50.5,29.85,NW,315,1.0,6.0,97,0.00,,,0.05,Rainwise IP-100,2013-06-12 08:16:00,
2013-06-12 04:21:00,51.5,51.0,29.86,NNE,22,3.0,9.0,97,0.00,,,0.05,Rainwise IP-100,2013-06-12 08:21:00,
2013-06-12 04:26:00,51.5,51.0,29.86,NW,315,4.0,10.0,97,0.06,,,0.06,Rainwise IP-100,2013-06-12 08:26:00,
2013-06-12 04:32:00,51.7,51.0,29.87,NE,45,4.0,10.0,97,0.06,,,0.06,Rainwise IP-100,2013-06-12 08:32:00,
2013-06-12 04:37:00,51.7,51.0,29.87,North,360,2.0,10.0,97,0.00,,,0.06,Rainwise IP-100,2013-06-12 08:37:00,
2013-06-12 04:42:00,51.7,51.0,29.87,NW,315,6.0,11.0,97,0.00,,,0.06,Rainwise IP-100,2013-06-12 08:42:00,
2013-06-12 04:47:00,51.7,51.0,29.87,NNW,337,4.0,9.0,97,0.00,,,0.06,Rainwise IP-100,2013-06-12 08:47:00,
2013-06-12 04:52:00,51.6,51.0,29.87,NW,315,4.0,6.0,97,0.00,,,0.06,Rainwise IP-100,2013-06-12 08:52:00,
2013-06-12 04:57:00,51.6,51.0,29.88,NW,315,2.0,11.0,97,0.06,,,0.07,Rainwise IP-100,2013-06-12 08:57:00,
2013-06-12 05:03:00,51.6,51.0,29.88,North,360,2.0,12.0,97,0.06,,,0.07,Rainwise IP-100,2013-06-12 09:03:00,
2013-06-12 05:08:00,51.4,50.5,29.88,North,360,4.0,7.0,97,0.00,,,0.07,Rainwise IP-100,2013-06-12 09:08:00,
2013-06-12 05:13:00,51.4,50.5,29.89,NNW,337,2.0,9.0,97,0.00,,,0.07,Rainwise IP-100,2013-06-12 09:13:00,
2013-06-12 05:18:00,51.3,50.5,29.89,North,360,0.0,6.0,97,0.00,,,0.07,Rainwise IP-100,2013-06-12 09:18:00,
2013-06-12 05:23:00,51.3,50.5,29.89,North,360,2.0,6.0,97,0.00,,,0.07,Rainwise IP-100,2013-06-12 09:23:00,
2013-06-12 05:28:00,51.2,50.5,29.89,NNE,22,2.0,4.0,97,0.00,,,0.08,Rainwise IP-100,2013-06-12 09:28:00,
2013-06-12 05:33:00,51.1,50.5,29.89,North,360,1.0,4.0,97,0.06,,,0.08,Rainwise IP-100,2013-06-12 09:33:00,
2013-06-12 05:38:00,51.1,50.5,29.90,North,360,2.0,6.0,97,0.12,,,0.09,Rainwise IP-100,2013-06-12 09:38:00,
2013-06-12 05:43:00,51.0,50.5,29.90,NW,315,1.0,6.0,97,0.12,,,0.10,Rainwise IP-100,2013-06-12 09:43:00,
2013-06-12 05:48:00,51.0,50.5,29.90,NNE,22,2.0,3.0,97,0.06,,,0.10,Rainwise IP-100,2013-06-12 09:48:00,
2013-06-12 05:53:00,51.0,50.5,29.90,NW,315,2.0,6.0,97,0.06,,,0.11,Rainwise IP-100,2013-06-12 09:53:00,
2013-06-12 05:58:00,51.0,50.5,29.91,NW,315,2.0,5.0,97,0.06,,,0.11,Rainwise IP-100,2013-06-12 09:58:00,
2013-06-12 06:04:00,50.9,50.5,29.91,NNE,22,2.0,4.0,97,0.06,,,0.12,Rainwise IP-100,2013-06-12 10:04:00,
2013-06-12 06:09:00,50.9,50.5,29.91,North,360,0.0,4.0,97,0.12,,,0.13,Rainwise IP-100,2013-06-12 10:09:00,
2013-06-12 06:14:00,50.9,50.5,29.91,NNW,337,0.0,4.0,97,0.12,,,0.14,Rainwise IP-100,2013-06-12 10:14:00,
2013-06-12 06:19:00,50.9,50.5,29.91,NW,315,2.0,2.0,97,0.12,,,0.15,Rainwise IP-100,2013-06-12 10:19:00,
2013-06-12 06:24:00,50.9,50.5,29.92,NW,315,0.0,2.0,97,0.06,,,0.15,Rainwise IP-100,2013-06-12 10:24:00,
2013-06-12 06:29:00,50.8,50.5,29.92,NW,315,0.0,2.0,97,0.06,,,0.16,Rainwise IP-100,2013-06-12 10:29:00,
2013-06-12 06:34:00,50.9,50.5,29.92,West,270,2.0,3.0,97,0.06,,,0.16,Rainwise IP-100,2013-06-12 10:34:00,
2013-06-12 06:39:00,50.9,50.5,29.92,NW,315,2.0,7.0,97,0.00,,,0.16,Rainwise IP-100,2013-06-12 10:39:00,
2013-06-12 06:44:00,51.1,50.5,29.92,NE,45,7.0,8.0,97,0.06,,,0.17,Rainwise IP-100,2013-06-12 10:44:00,
2013-06-12 06:49:00,51.1,50.5,29.93,NW,315,2.0,8.0,97,0.06,,,0.17,Rainwise IP-100,2013-06-12 10:49:00,
2013-06-12 06:54:00,51.1,50.5,29.93,North,360,2.0,6.0,97,0.06,,,0.18,Rainwise IP-100,2013-06-12 10:54:00,
2013-06-12 06:59:00,51.1,50.5,29.93,NE,45,1.0,7.0,97,0.06,,,0.18,Rainwise IP-100,2013-06-12 10:59:00,
2013-06-12 07:05:00,51.2,50.5,29.93,NW,315,2.0,7.0,97,0.00,,,0.18,Rainwise IP-100,2013-06-12 11:05:00,
2013-06-12 07:10:00,51.2,50.5,29.93,North,360,1.0,6.0,97,0.00,,,0.18,Rainwise IP-100,2013-06-12 11:10:00,
2013-06-12 07:15:00,51.2,50.5,29.93,NNW,337,3.0,9.0,97,0.00,,,0.18,Rainwise IP-100,2013-06-12 11:15:00,
2013-06-12 07:20:00,51.3,50.5,29.93,NW,315,2.0,5.0,97,0.00,,,0.18,Rainwise IP-100,2013-06-12 11:20:00,
2013-06-12 07:25:00,51.3,50.5,29.94,North,360,2.0,5.0,97,0.00,,,0.18,Rainwise IP-100,2013-06-12 11:25:00,
2013-06-12 07:30:00,51.3,50.5,29.94,North,360,4.0,6.0,97,0.00,,,0.18,Rainwise IP-100,2013-06-12 11:30:00,
2013-06-12 07:35:00,51.3,50.5,29.94,North,360,6.0,9.0,97,0.00,,,0.18,Rainwise IP-100,2013-06-12 11:35:00,
2013-06-12 07:40:00,51.3,50.5,29.95,NW,315,1.0,9.0,97,0.00,,,0.18,Rainwise IP-100,2013-06-12 11:40:00,
2013-06-12 07:45:00,51.3,50.5,29.94,NNW,337,0.0,5.0,97,0.00,,,0.18,Rainwise IP-100,2013-06-12 11:45:00,
2013-06-12 07:50:00,51.3,50.5,29.94,NW,315,4.0,7.0,97,0.00,,,0.18,Rainwise IP-100,2013-06-12 11:50:00,
2013-06-12 07:55:00,51.4,50.5,29.95,NE,45,4.0,7.0,97,0.00,,,0.18,Rainwise IP-100,2013-06-12 11:55:00,
2013-06-12 08:01:00,51.5,51.0,29.94,NNW,337,4.0,11.0,97,0.06,,,0.19,Rainwise IP-100,2013-06-12 12:01:00,
2013-06-12 08:06:00,51.4,50.5,29.95,North,360,4.0,7.0,97,0.12,,,0.20,Rainwise IP-100,2013-06-12 12:06:00,
2013-06-12 08:11:00,51.5,51.0,29.95,North,360,3.0,7.0,97,0.06,,,0.20,Rainwise IP-100,2013-06-12 12:11:00,
2013-06-12 08:16:00,51.6,51.0,29.95,North,360,5.0,7.0,97,0.00,,,0.20,Rainwise IP-100,2013-06-12 12:16:00,
2013-06-12 08:21:00,51.7,51.0,29.95,North,360,4.0,9.0,97,0.00,,,0.20,Rainwise IP-100,2013-06-12 12:21:00,
2013-06-12 08:26:00,51.8,51.0,29.95,North,360,3.0,8.0,97,0.00,,,0.20,Rainwise IP-100,2013-06-12 12:26:00,
2013-06-12 08:31:00,51.9,51.0,29.96,NNW,337,4.0,9.0,97,0.00,,,0.20,Rainwise IP-100,2013-06-12 12:31:00,
2013-06-12 08:36:00,52.1,51.0,29.95,West,270,1.0,10.0,97,0.00,,,0.20,Rainwise IP-100,2013-06-12 12:36:00,
2013-06-12 08:41:00,52.2,51.0,29.96,North,360,2.0,11.0,97,0.00,,,0.20,Rainwise IP-100,2013-06-12 12:41:00,
2013-06-12 08:46:00,52.1,51.0,29.96,NW,315,3.0,9.0,97,0.00,,,0.20,Rainwise IP-100,2013-06-12 12:46:00,
2013-06-12 08:51:00,52.2,51.0,29.96,North,360,2.0,5.0,97,0.00,,,0.20,Rainwise IP-100,2013-06-12 12:51:00,
2013-06-12 08:56:00,52.3,51.0,29.96,West,270,2.0,7.0,97,0.00,,,0.20,Rainwise IP-100,2013-06-12 12:56:00,
2013-06-12 09:02:00,52.4,51.0,29.96,North,360,4.0,7.0,97,0.00,,,0.20,Rainwise IP-100,2013-06-12 13:02:00,
2013-06-12 09:07:00,52.4,51.0,29.97,North,360,2.0,9.0,97,0.00,,,0.20,Rainwise IP-100,2013-06-12 13:07:00,
2013-06-12 09:12:00,52.6,51.0,29.97,North,360,4.0,10.0,96,0.00,,,0.20,Rainwise IP-100,2013-06-12 13:12:00,
2013-06-12 09:17:00,52.6,52.0,29.97,North,360,1.0,7.0,97,0.00,,,0.20,Rainwise IP-100,2013-06-12 13:17:00,
2013-06-12 09:22:00,52.9,52.0,29.97,North,360,2.0,5.0,97,0.00,,,0.20,Rainwise IP-100,2013-06-12 13:22:00,
2013-06-12 09:27:00,53.0,52.0,29.97,NNW,337,1.0,3.0,97,0.00,,,0.20,Rainwise IP-100,2013-06-12 13:27:00,
2013-06-12 09:32:00,53.1,51.0,29.98,NW,315,4.0,4.0,96,0.00,,,0.20,Rainwise IP-100,2013-06-12 13:32:00,
2013-06-12 09:37:00,53.2,51.0,29.98,WNW,292,4.0,4.0,95,0.00,,,0.20,Rainwise IP-100,2013-06-12 13:37:00,
2013-06-12 09:42:00,53.2,50.5,29.98,NNE,22,7.0,7.0,93,0.00,,,0.20,Rainwise IP-100,2013-06-12 13:42:00,
2013-06-12 09:47:00,53.1,51.0,29.99,North,360,0.0,10.0,96,0.00,,,0.20,Rainwise IP-100,2013-06-12 13:47:00,
2013-06-12 09:52:00,53.2,51.0,29.99,NE,45,2.0,2.0,95,0.00,,,0.20,Rainwise IP-100,2013-06-12 13:52:00,
2013-06-12 09:57:00,53.3,52.0,29.99,North,360,3.0,4.0,95,0.00,,,0.20,Rainwise IP-100,2013-06-12 13:57:00,
2013-06-12 10:03:00,53.7,51.0,29.98,NW,315,1.0,9.0,92,0.00,,,0.20,Rainwise IP-100,2013-06-12 14:03:00,
2013-06-12 10:08:00,53.9,52.0,29.98,North,360,3.0,6.0,93,0.00,,,0.20,Rainwise IP-100,2013-06-12 14:08:00,
2013-06-12 10:13:00,54.1,52.0,29.99,ESE,112,0.0,4.0,93,0.00,,,0.20,Rainwise IP-100,2013-06-12 14:13:00,
2013-06-12 10:18:00,54.4,52.0,29.99,North,360,2.0,4.0,91,0.00,,,0.20,Rainwise IP-100,2013-06-12 14:18:00,
2013-06-12 10:23:00,54.9,53.0,29.98,North,360,2.0,7.0,92,0.00,,,0.20,Rainwise IP-100,2013-06-12 14:23:00,
2013-06-12 10:28:00,55.9,52.0,29.98,NNE,22,1.0,7.0,86,0.00,,,0.20,Rainwise IP-100,2013-06-12 14:28:00,
2013-06-12 10:33:00,56.0,52.0,29.99,West,270,6.0,9.0,87,0.00,,,0.20,Rainwise IP-100,2013-06-12 14:33:00,
2013-06-12 10:38:00,55.9,53.0,29.99,NW,315,2.0,7.0,88,0.00,,,0.20,Rainwise IP-100,2013-06-12 14:38:00,
2013-06-12 10:43:00,56.1,53.5,29.99,NW,315,2.0,6.0,90,0.00,,,0.20,Rainwise IP-100,2013-06-12 14:43:00,
2013-06-12 10:48:00,56.4,53.0,29.99,North,360,2.0,10.0,88,0.00,,,0.20,Rainwise IP-100,2013-06-12 14:48:00,
2013-06-12 10:53:00,57.0,53.0,29.99,NNW,337,3.0,13.0,85,0.00,,,0.20,Rainwise IP-100,2013-06-12 14:53:00,
2013-06-12 10:58:00,57.8,53.5,30.00,North,360,8.0,14.0,84,0.00,,,0.20,Rainwise IP-100,2013-06-12 14:58:00,
2013-06-12 11:04:00,57.9,54.0,30.00,NE,45,4.0,9.0,85,0.00,,,0.20,Rainwise IP-100,2013-06-12 15:04:00,
2013-06-12 11:09:00,57.9,53.5,30.00,North,360,1.0,10.0,84,0.00,,,0.20,Rainwise IP-100,2013-06-12 15:09:00,
2013-06-12 11:14:00,57.2,52.0,30.01,WNW,292,4.0,14.0,83,0.00,,,0.20,Rainwise IP-100,2013-06-12 15:14:00,
2013-06-12 11:19:00,56.9,52.0,30.01,NNW,337,7.0,9.0,82,0.00,,,0.20,Rainwise IP-100,2013-06-12 15:19:00,
2013-06-12 11:24:00,56.9,52.0,30.01,North,360,9.0,9.0,84,0.00,,,0.20,Rainwise IP-100,2013-06-12 15:24:00,
2013-06-12 11:29:00,57.4,53.5,30.01,North,360,3.0,11.0,85,0.00,,,0.20,Rainwise IP-100,2013-06-12 15:29:00,
2013-06-12 11:34:00,58.4,52.0,30.01,North,360,6.0,8.0,79,0.00,,,0.20,Rainwise IP-100,2013-06-12 15:34:00,
2013-06-12 11:39:00,58.9,52.0,30.01,NNW,337,4.0,9.0,77,0.00,,,0.20,Rainwise IP-100,2013-06-12 15:39:00,
2013-06-12 11:44:00,58.8,53.0,30.01,North,360,7.0,9.0,80,0.00,,,0.20,Rainwise IP-100,2013-06-12 15:44:00,
2013-06-12 11:49:00,58.4,53.0,30.02,NNW,337,6.0,11.0,81,0.00,,,0.20,Rainwise IP-100,2013-06-12 15:49:00,
2013-06-12 11:54:00,58.5,52.0,30.02,NE,45,1.0,11.0,78,0.00,,,0.20,Rainwise IP-100,2013-06-12 15:54:00,
2013-06-12 11:59:00,58.3,51.0,30.02,NNE,22,2.0,13.0,78,0.00,,,0.20,Rainwise IP-100,2013-06-12 15:59:00,
2013-06-12 12:05:00,58.5,53.5,30.02,NW,315,1.0,4.0,81,0.00,,,0.20,Rainwise IP-100,2013-06-12 16:05:00,
2013-06-12 12:10:00,59.2,53.5,30.02,NNE,22,4.0,10.0,82,0.00,,,0.20,Rainwise IP-100,2013-06-12 16:10:00,
2013-06-12 12:15:00,59.3,52.0,30.02,NNW,337,4.0,8.0,77,0.00,,,0.20,Rainwise IP-100,2013-06-12 16:15:00,
2013-06-12 12:20:00,59.2,52.0,30.02,North,360,1.0,9.0,77,0.00,,,0.20,Rainwise IP-100,2013-06-12 16:20:00,
2013-06-12 12:25:00,59.2,52.0,30.02,North,360,3.0,11.0,78,0.00,,,0.20,Rainwise IP-100,2013-06-12 16:25:00,
2013-06-12 12:30:00,59.6,52.0,30.02,North,360,1.0,9.0,76,0.00,,,0.20,Rainwise IP-100,2013-06-12 16:30:00,
2013-06-12 12:35:00,59.7,51.0,30.02,NW,315,2.0,9.0,74,0.00,,,0.20,Rainwise IP-100,2013-06-12 16:35:00,
2013-06-12 12:41:00,60.0,53.0,30.03,North,360,6.0,8.0,76,0.00,,,0.20,Rainwise IP-100,2013-06-12 16:41:00,
2013-06-12 12:46:00,60.4,53.0,30.03,North,360,7.0,10.0,75,0.00,,,0.20,Rainwise IP-100,2013-06-12 16:46:00,
2013-06-12 12:51:00,61.3,53.0,30.03,North,360,7.0,9.0,72,0.00,,,0.20,Rainwise IP-100,2013-06-12 16:51:00,
2013-06-12 12:56:00,61.3,53.0,30.03,West,270,2.0,9.0,73,0.00,,,0.20,Rainwise IP-100,2013-06-12 16:56:00,
2013-06-12 13:01:00,61.9,52.0,30.03,North,360,3.0,10.0,69,0.00,,,0.20,Rainwise IP-100,2013-06-12 17:01:00,
2013-06-12 13:07:00,62.5,52.0,30.03,ENE,67,6.0,10.0,69,0.00,,,0.20,Rainwise IP-100,2013-06-12 17:07:00,
2013-06-12 13:12:00,62.8,52.0,30.03,North,360,4.0,11.0,67,0.00,,,0.20,Rainwise IP-100,2013-06-12 17:12:00,
2013-06-12 13:18:00,63.2,53.0,30.03,North,360,2.0,9.0,69,0.00,,,0.20,Rainwise IP-100,2013-06-12 17:18:00,
2013-06-12 13:23:00,63.9,53.0,30.03,North,360,2.0,11.0,66,0.00,,,0.20,Rainwise IP-100,2013-06-12 17:23:00,
2013-06-12 13:28:00,63.9,53.0,30.03,North,360,1.0,11.0,67,0.00,,,0.20,Rainwise IP-100,2013-06-12 17:28:00,
2013-06-12 13:33:00,64.6,53.0,30.03,WNW,292,4.0,6.0,66,0.00,,,0.20,Rainwise IP-100,2013-06-12 17:33:00,
2013-06-12 13:38:00,64.6,53.0,30.03,North,360,3.0,10.0,65,0.00,,,0.20,Rainwise IP-100,2013-06-12 17:38:00,
2013-06-12 13:43:00,64.8,51.0,30.03,North,360,5.0,10.0,62,0.00,,,0.20,Rainwise IP-100,2013-06-12 17:43:00,
2013-06-12 13:48:00,63.9,53.0,30.03,North,360,4.0,12.0,67,0.00,,,0.20,Rainwise IP-100,2013-06-12 17:48:00,
2013-06-12 13:53:00,64.6,51.0,30.03,North,360,2.0,6.0,63,0.00,,,0.20,Rainwise IP-100,2013-06-12 17:53:00,
2013-06-12 13:58:00,64.9,53.0,30.03,ENE,67,6.0,7.0,64,0.00,,,0.20,Rainwise IP-100,2013-06-12 17:58:00,
2013-06-12 14:03:00,64.7,53.0,30.03,West,270,1.0,10.0,66,0.00,,,0.20,Rainwise IP-100,2013-06-12 18:03:00,
2013-06-12 14:08:00,64.9,53.0,30.03,NE,45,1.0,7.0,65,0.00,,,0.20,Rainwise IP-100,2013-06-12 18:08:00,
2013-06-12 14:13:00,64.4,52.0,30.03,NE,45,9.0,9.0,64,0.00,,,0.20,Rainwise IP-100,2013-06-12 18:13:00,
2013-06-12 14:19:00,63.3,53.0,30.03,NE,45,0.0,9.0,67,0.00,,,0.20,Rainwise IP-100,2013-06-12 18:19:00,
2013-06-12 14:24:00,63.5,52.0,30.03,NW,315,0.0,6.0,66,0.00,,,0.20,Rainwise IP-100,2013-06-12 18:24:00,
2013-06-12 14:29:00,64.5,52.0,30.03,NE,45,8.0,9.0,64,0.00,,,0.20,Rainwise IP-100,2013-06-12 18:29:00,
2013-06-12 14:34:00,64.8,50.5,30.03,NE,45,1.0,10.0,60,0.00,,,0.20,Rainwise IP-100,2013-06-12 18:34:00,
2013-06-12 14:39:00,64.9,54.5,30.03,NNE,22,2.0,7.0,70,0.00,,,0.20,Rainwise IP-100,2013-06-12 18:39:00,
2013-06-12 14:44:00,64.1,50.5,30.03,NNE,22,2.0,7.0,61,0.00,,,0.20,Rainwise IP-100,2013-06-12 18:44:00,
2013-06-12 14:49:00,63.5,53.5,30.03,North,360,2.0,5.0,69,0.00,,,0.20,Rainwise IP-100,2013-06-12 18:49:00,
2013-06-12 14:54:00,63.0,53.5,30.02,NNW,337,0.0,4.0,70,0.00,,,0.20,Rainwise IP-100,2013-06-12 18:54:00,
2013-06-12 14:59:00,63.1,52.0,30.02,NW,315,2.0,4.0,68,0.00,,,0.20,Rainwise IP-100,2013-06-12 18:59:00,
2013-06-12 15:04:00,63.6,53.5,30.02,North,360,2.0,6.0,69,0.00,,,0.20,Rainwise IP-100,2013-06-12 19:04:00,
2013-06-12 15:09:00,64.6,53.5,30.02,North,360,3.0,7.0,67,0.00,,,0.20,Rainwise IP-100,2013-06-12 19:09:00,
2013-06-12 15:14:00,64.7,53.0,30.02,NW,315,2.0,5.0,65,0.00,,,0.20,Rainwise IP-100,2013-06-12 19:14:00,
2013-06-12 15:20:00,64.4,54.5,30.02,NE,45,2.0,4.0,70,0.00,,,0.20,Rainwise IP-100,2013-06-12 19:20:00,
2013-06-12 15:25:00,64.3,53.0,30.02,North,360,1.0,3.0,66,0.00,,,0.20,Rainwise IP-100,2013-06-12 19:25:00,
2013-06-12 15:30:00,63.7,53.0,30.02,North,360,1.0,4.0,68,0.00,,,0.20,Rainwise IP-100,2013-06-12 19:30:00,
2013-06-12 15:35:00,63.4,54.5,30.02,North,360,2.0,2.0,73,0.00,,,0.20,Rainwise IP-100,2013-06-12 19:35:00,
2013-06-12 15:40:00,62.9,53.5,30.02,NE,45,1.0,4.0,70,0.00,,,0.20,Rainwise IP-100,2013-06-12 19:40:00,
2013-06-12 15:45:00,63.3,54.0,30.02,North,360,2.0,3.0,71,0.00,,,0.20,Rainwise IP-100,2013-06-12 19:45:00,
2013-06-12 15:50:00,64.2,53.0,30.01,NE,45,1.0,3.0,67,0.00,,,0.20,Rainwise IP-100,2013-06-12 19:50:00,
2013-06-12 15:55:00,64.3,53.5,30.01,NE,45,2.0,4.0,67,0.00,,,0.20,Rainwise IP-100,2013-06-12 19:55:00,
2013-06-12 16:00:00,63.9,53.0,30.01,North,360,2.0,5.0,67,0.00,,,0.20,Rainwise IP-100,2013-06-12 20:00:00,
2013-06-12 16:05:00,64.1,54.0,30.01,NW,315,0.0,2.0,70,0.00,,,0.20,Rainwise IP-100,2013-06-12 20:05:00,
2013-06-12 16:10:00,64.9,53.0,30.01,NE,45,1.0,2.0,65,0.00,,,0.20,Rainwise IP-100,2013-06-12 20:10:00,
2013-06-12 16:15:00,65.2,53.0,30.01,East,90,1.0,4.0,64,0.00,,,0.20,Rainwise IP-100,2013-06-12 20:15:00,
2013-06-12 16:21:00,66.0,53.0,30.01,West,270,1.0,3.0,63,0.00,,,0.20,Rainwise IP-100,2013-06-12 20:21:00,
2013-06-12 16:26:00,66.3,53.0,30.01,NW,315,0.0,4.0,62,0.00,,,0.20,Rainwise IP-100,2013-06-12 20:26:00,
2013-06-12 16:31:00,66.3,54.0,30.01,NE,45,1.0,2.0,65,0.00,,,0.20,Rainwise IP-100,2013-06-12 20:31:00,
2013-06-12 16:36:00,65.7,54.0,30.01,NNE,22,2.0,4.0,66,0.00,,,0.20,Rainwise IP-100,2013-06-12 20:36:00,
2013-06-12 16:41:00,65.4,54.0,30.01,North,360,2.0,3.0,66,0.00,,,0.20,Rainwise IP-100,2013-06-12 20:41:00,
2013-06-12 16:46:00,65.6,53.5,30.01,NE,45,1.0,2.0,65,0.00,,,0.20,Rainwise IP-100,2013-06-12 20:46:00,
2013-06-12 16:51:00,65.8,54.0,30.01,North,360,1.0,2.0,66,0.00,,,0.20,Rainwise IP-100,2013-06-12 20:51:00,
2013-06-12 16:56:00,66.9,53.0,30.01,NW,315,1.0,2.0,60,0.00,,,0.20,Rainwise IP-100,2013-06-12 20:56:00,
2013-06-12 17:01:00,67.1,53.0,30.01,NNE,22,2.0,4.0,60,0.00,,,0.20,Rainwise IP-100,2013-06-12 21:01:00,
2013-06-12 17:06:00,66.5,53.0,30.01,NW,315,2.0,5.0,60,0.00,,,0.20,Rainwise IP-100,2013-06-12 21:06:00,
2013-06-12 17:11:00,65.6,54.0,30.01,NW,315,2.0,4.0,66,0.00,,,0.20,Rainwise IP-100,2013-06-12 21:11:00,
2013-06-12 17:16:00,64.9,54.0,30.01,North,360,1.0,2.0,68,0.00,,,0.20,Rainwise IP-100,2013-06-12 21:16:00,
2013-06-12 17:22:00,64.7,56.5,30.01,North,360,0.0,2.0,75,0.00,,,0.20,Rainwise IP-100,2013-06-12 21:22:00,
2013-06-12 17:27:00,64.4,58.0,30.01,North,360,0.0,0.0,81,0.00,,,0.20,Rainwise IP-100,2013-06-12 21:27:00,
2013-06-12 17:32:00,64.1,54.0,30.01,NW,315,0.0,3.0,70,0.00,,,0.20,Rainwise IP-100,2013-06-12 21:32:00,
2013-06-12 17:37:00,64.6,56.5,30.01,NW,315,0.0,2.0,76,0.00,,,0.20,Rainwise IP-100,2013-06-12 21:37:00,
2013-06-12 17:42:00,65.1,54.0,30.01,North,360,2.0,4.0,67,0.00,,,0.20,Rainwise IP-100,2013-06-12 21:42:00,
2013-06-12 17:47:00,65.1,55.0,30.01,North,360,2.0,2.0,71,0.00,,,0.20,Rainwise IP-100,2013-06-12 21:47:00,
2013-06-12 17:52:00,64.9,57.0,30.01,North,360,1.0,2.0,75,0.00,,,0.20,Rainwise IP-100,2013-06-12 21:52:00,
2013-06-12 17:57:00,64.5,56.5,30.01,North,360,1.0,4.0,75,0.00,,,0.20,Rainwise IP-100,2013-06-12 21:57:00,
2013-06-12 18:02:00,64.2,56.5,30.01,North,360,0.0,2.0,76,0.00,,,0.20,Rainwise IP-100,2013-06-12 22:02:00,
2013-06-12 18:07:00,63.9,59.0,30.01,North,360,0.0,0.0,84,0.00,,,0.20,Rainwise IP-100,2013-06-12 22:07:00,
2013-06-12 18:12:00,63.4,57.0,30.01,North,360,2.0,2.0,80,0.00,,,0.20,Rainwise IP-100,2013-06-12 22:12:00,
2013-06-12 18:17:00,63.2,59.0,30.01,North,360,1.0,2.0,86,0.00,,,0.20,Rainwise IP-100,2013-06-12 22:17:00,
2013-06-12 18:23:00,62.9,56.5,30.01,North,360,1.0,7.0,79,0.00,,,0.20,Rainwise IP-100,2013-06-12 22:23:00,
2013-06-12 18:28:00,62.9,56.5,30.01,North,360,1.0,4.0,79,0.00,,,0.20,Rainwise IP-100,2013-06-12 22:28:00,
2013-06-12 18:33:00,62.9,56.5,30.01,North,360,0.0,4.0,80,0.00,,,0.20,Rainwise IP-100,2013-06-12 22:33:00,
2013-06-12 18:38:00,63.2,55.0,30.01,North,360,1.0,2.0,76,0.00,,,0.20,Rainwise IP-100,2013-06-12 22:38:00,
2013-06-12 18:43:00,63.5,56.0,30.01,North,360,0.0,2.0,76,0.00,,,0.20,Rainwise IP-100,2013-06-12 22:43:00,
2013-06-12 18:48:00,63.3,57.0,30.01,North,360,0.0,0.0,79,0.00,,,0.20,Rainwise IP-100,2013-06-12 22:48:00,
2013-06-12 18:53:00,62.8,57.0,30.01,North,360,0.0,2.0,81,0.00,,,0.20,Rainwise IP-100,2013-06-12 22:53:00,
2013-06-12 18:58:00,62.0,56.0,30.01,North,360,1.0,2.0,80,0.00,,,0.20,Rainwise IP-100,2013-06-12 22:58:00,
2013-06-12 19:03:00,61.9,57.5,30.01,North,360,2.0,2.0,86,0.00,,,0.20,Rainwise IP-100,2013-06-12 23:03:00,
2013-06-12 19:08:00,61.6,57.5,30.02,NNW,337,1.0,2.0,88,0.00,,,0.20,Rainwise IP-100,2013-06-12 23:08:00,
2013-06-12 19:13:00,61.3,56.5,30.02,NW,315,2.0,2.0,84,0.00,,,0.20,Rainwise IP-100,2013-06-12 23:13:00,
2013-06-12 19:18:00,61.0,57.5,30.02,North,360,1.0,4.0,88,0.00,,,0.20,Rainwise IP-100,2013-06-12 23:18:00,
2013-06-12 19:24:00,60.8,57.5,30.02,North,360,1.0,2.0,89,0.00,,,0.20,Rainwise IP-100,2013-06-12 23:24:00,
2013-06-12 19:29:00,60.4,57.5,30.02,NW,315,2.0,2.0,90,0.00,,,0.20,Rainwise IP-100,2013-06-12 23:29:00,
2013-06-12 19:34:00,59.9,57.5,30.02,North,360,4.0,7.0,92,0.00,,,0.20,Rainwise IP-100,2013-06-12 23:34:00,
2013-06-12 19:39:00,59.4,56.0,30.02,North,360,1.0,7.0,89,0.00,,,0.20,Rainwise IP-100,2013-06-12 23:39:00,
2013-06-12 19:44:00,58.9,56.5,30.02,North,360,1.0,4.0,92,0.00,,,0.20,Rainwise IP-100,2013-06-12 23:44:00,
2013-06-12 19:49:00,58.5,57.0,30.02,North,360,2.0,5.0,93,0.00,,,0.20,Rainwise IP-100,2013-06-12 23:49:00,
2013-06-12 19:54:00,58.1,57.0,30.02,NNW,337,2.0,5.0,95,0.00,,,0.20,Rainwise IP-100,2013-06-12 23:54:00,
2013-06-12 19:59:00,57.8,57.0,30.02,North,360,1.0,3.0,95,0.00,,,0.20,Rainwise IP-100,2013-06-12 23:59:00,
2013-06-12 20:04:00,57.6,56.5,30.02,NW,315,0.0,2.0,95,0.00,,,0.20,Rainwise IP-100,2013-06-13 00:04:00,
2013-06-12 20:09:00,57.5,56.5,30.02,NW,315,0.0,1.0,95,0.00,,,0.20,Rainwise IP-100,2013-06-13 00:09:00,
2013-06-12 20:14:00,57.3,56.5,30.02,NW,315,0.0,0.0,96,0.00,,,0.20,Rainwise IP-100,2013-06-13 00:14:00,
2013-06-12 20:19:00,57.2,56.5,30.02,NW,315,0.0,0.0,97,0.00,,,0.20,Rainwise IP-100,2013-06-13 00:19:00,
2013-06-12 20:25:00,57.1,56.5,30.03,NW,315,0.0,0.0,97,0.00,,,0.20,Rainwise IP-100,2013-06-13 00:25:00,
2013-06-12 20:30:00,56.9,56.5,30.03,NW,315,0.0,0.0,97,0.00,,,0.20,Rainwise IP-100,2013-06-13 00:30:00,
2013-06-12 20:35:00,56.9,56.5,30.02,NW,315,0.0,0.0,97,0.00,,,0.20,Rainwise IP-100,2013-06-13 00:35:00,
2013-06-12 20:40:00,56.8,56.5,30.03,NW,315,0.0,0.0,97,0.00,,,0.20,Rainwise IP-100,2013-06-13 00:40:00,
2013-06-12 20:45:00,56.7,56.0,30.03,NW,315,0.0,0.0,97,0.00,,,0.20,Rainwise IP-100,2013-06-13 00:45:00,
2013-06-12 20:50:00,56.6,56.0,30.03,NW,315,0.0,0.0,97,0.06,,,0.21,Rainwise IP-100,2013-06-13 00:50:00,
2013-06-12 20:55:00,56.5,56.0,30.02,NW,315,0.0,0.0,97,0.06,,,0.21,Rainwise IP-100,2013-06-13 00:55:00,
2013-06-12 21:00:00,56.4,56.0,30.02,NW,315,0.0,0.0,97,0.00,,,0.22,Rainwise IP-100,2013-06-13 01:00:00,
2013-06-12 21:05:00,56.4,56.0,30.02,NW,315,1.0,2.0,97,0.06,,,0.22,Rainwise IP-100,2013-06-13 01:05:00,
2013-06-12 21:10:00,56.3,56.0,30.03,NW,315,0.0,2.0,97,0.06,,,0.22,Rainwise IP-100,2013-06-13 01:10:00,
2013-06-12 21:15:00,56.3,56.0,30.03,NW,315,2.0,2.0,97,0.00,,,0.22,Rainwise IP-100,2013-06-13 01:15:00,
2013-06-12 21:20:00,56.2,55.0,30.03,NW,315,0.0,2.0,97,0.00,,,0.22,Rainwise IP-100,2013-06-13 01:20:00,
2013-06-12 21:26:00,56.1,55.0,30.03,NW,315,0.0,0.0,97,0.00,,,0.22,Rainwise IP-100,2013-06-13 01:26:00,
2013-06-12 21:31:00,55.9,55.0,30.03,NW,315,0.0,0.0,97,0.00,,,0.22,Rainwise IP-100,2013-06-13 01:31:00,
2013-06-12 21:36:00,55.9,55.0,30.03,NW,315,0.0,0.0,97,0.00,,,0.22,Rainwise IP-100,2013-06-13 01:36:00,
2013-06-12 21:41:00,55.7,55.0,30.03,NW,315,0.0,0.0,97,0.00,,,0.22,Rainwise IP-100,2013-06-13 01:41:00,
2013-06-12 21:46:00,55.6,55.0,30.03,NW,315,0.0,0.0,97,0.00,,,0.22,Rainwise IP-100,2013-06-13 01:46:00,
2013-06-12 21:51:00,55.4,54.5,30.03,NW,315,0.0,0.0,97,0.00,,,0.22,Rainwise IP-100,2013-06-13 01:51:00,
2013-06-12 21:56:00,55.3,54.5,30.03,NW,315,0.0,0.0,97,0.00,,,0.22,Rainwise IP-100,2013-06-13 01:56:00,
2013-06-12 22:01:00,55.2,54.5,30.03,NW,315,0.0,0.0,97,0.00,,,0.22,Rainwise IP-100,2013-06-13 02:01:00,
2013-06-12 22:06:00,55.2,54.5,30.03,NW,315,0.0,0.0,97,0.00,,,0.22,Rainwise IP-100,2013-06-13 02:06:00,
2013-06-12 22:11:00,55.3,54.5,30.03,NW,315,0.0,0.0,97,0.00,,,0.22,Rainwise IP-100,2013-06-13 02:11:00,
2013-06-12 22:16:00,55.3,54.5,30.03,NW,315,0.0,0.0,97,0.00,,,0.22,Rainwise IP-100,2013-06-13 02:16:00,
2013-06-12 22:21:00,55.1,54.5,30.03,NW,315,0.0,0.0,97,0.00,,,0.22,Rainwise IP-100,2013-06-13 02:21:00,
2013-06-12 22:27:00,55.0,54.5,30.02,NW,315,2.0,2.0,97,0.00,,,0.22,Rainwise IP-100,2013-06-13 02:27:00,
2013-06-12 22:32:00,55.0,54.5,30.02,NW,315,2.0,2.0,97,0.00,,,0.22,Rainwise IP-100,2013-06-13 02:32:00,
2013-06-12 22:37:00,55.1,54.5,30.02,North,360,2.0,2.0,97,0.12,,,0.24,Rainwise IP-100,2013-06-13 02:37:00,
2013-06-12 22:42:00,55.1,54.5,30.02,North,360,0.0,2.0,97,0.18,,,0.25,Rainwise IP-100,2013-06-13 02:42:00,
2013-06-12 22:47:00,55.1,54.5,30.02,NW,315,1.0,4.0,97,0.12,,,0.26,Rainwise IP-100,2013-06-13 02:47:00,
2013-06-12 22:52:00,55.1,54.5,30.02,North,360,4.0,6.0,97,0.06,,,0.26,Rainwise IP-100,2013-06-13 02:52:00,
2013-06-12 22:57:00,55.2,54.5,30.03,North,360,2.0,7.0,97,0.36,,,0.33,Rainwise IP-100,2013-06-13 02:57:00,
2013-06-12 23:02:00,55.3,54.5,30.03,North,360,1.0,4.0,97,0.72,,,0.38,Rainwise IP-100,2013-06-13 03:02:00,
2013-06-12 23:07:00,55.2,54.5,30.03,North,360,2.0,4.0,97,0.42,,,0.39,Rainwise IP-100,2013-06-13 03:07:00,
2013-06-12 23:12:00,55.1,54.5,30.03,SE,135,2.0,4.0,97,0.24,,,0.42,Rainwise IP-100,2013-06-13 03:12:00,
2013-06-12 23:17:00,55.0,54.5,30.02,SE,135,0.0,2.0,97,0.30,,,0.44,Rainwise IP-100,2013-06-13 03:17:00,
2013-06-12 23:22:00,54.9,54.5,30.02,SE,135,0.0,0.0,97,0.18,,,0.45,Rainwise IP-100,2013-06-13 03:22:00,
2013-06-12 23:28:00,55.0,54.5,30.01,SE,135,0.0,0.0,97,0.06,,,0.45,Rainwise IP-100,2013-06-13 03:28:00,
2013-06-12 23:33:00,54.9,54.5,30.01,SE,135,0.0,0.0,97,0.00,,,0.45,Rainwise IP-100,2013-06-13 03:33:00,
2013-06-12 23:38:00,54.9,54.5,30.01,West,270,0.0,2.0,97,0.00,,,0.45,Rainwise IP-100,2013-06-13 03:38:00,
2013-06-12 23:43:00,54.9,54.5,30.01,West,270,0.0,1.0,97,0.00,,,0.45,Rainwise IP-100,2013-06-13 03:43:00,
2013-06-12 23:48:00,54.8,54.5,30.01,West,270,0.0,2.0,97,0.00,,,0.45,Rainwise IP-100,2013-06-13 03:48:00,
2013-06-12 23:53:00,54.7,54.0,30.01,West,270,0.0,0.0,97,0.00,,,0.45,Rainwise IP-100,2013-06-13 03:53:00,
2013-06-12 23:58:00,54.7,54.0,30.01,West,270,0.0,2.0,97,0.00,,,0.45,Rainwise IP-100,2013-06-13 03:58:00,